Location: Artiguedieu
(43.5000°N, 0.5454°E)
Time: 13:08:31
(UTC+00:00)

SAR-Lupe-4 - Pass Details

Date: 06 December 2020
Orbit: 481 x 484 km, 98.2° (Epoch: 09 January)

Event Time Altitude Azimuth Distance (km) Brightness Sun altitude
Rises 05:28:43 0° 177° (S) 2,529 7.4 -18.8°
Reaches altitude 10° 05:30:48 10° 182° (S) 1,655 6.4 -18.5°
Maximum altitude 05:34:16 51° 259° (W) 618 3.7 -17.9°
Enters shadow 05:34:46 46° 290° (WNW) 657 3.7 -17.8°
